Location: Hilton Head Island
(32.2163°N, 80.7526°W)
Time: 03:27:37
(UTC-04:00)

Explorer 7 - Pass Details

Date: 22 February 2026
Orbit: 430 x 541 km, 50.2° (Epoch: 11 March)

Event Time Altitude Azimuth Distance (km) Brightness Sun altitude
Rises 12:45:26 0° 233° (SW) 2,380 10.5 47.7°
Reaches altitude 10° 12:47:32 10° 236° (SW) 1,519 9.6 47.7°
Maximum altitude 12:50:55 65° 318° (NW) 479 7.0 47.6°
Drops below altitude 10° 12:54:22 10° 42° (NE) 1,551 8.9 47.6°
Sets 12:56:32 0° 45° (NE) 2,437 9.8 47.5°
